Weather History for KELY - October, 2013

Change the Weather History Date:

Wednesday, October 16, 2013

  Actual Average Record
Temperature  
Mean Temperature 40 °F 45 °F  
Max Temperature 59 °F 63 °F 80 °F (1991)
Min Temperature 20 °F 28 °F 9 °F (1893)
Degree Days  
Heating Degree Days 25 20  
Month to date heating degree days 341 275  
Since 1 July heating degree days 572 591  
Cooling Degree Days 0 0  
Month to date cooling degree days 0 0  
Year to date cooling degree days 387 218  
Moisture  
Dew Point 21 °F    
Average Humidity 59    
Maximum Humidity 100    
Minimum Humidity 17    
Precipitation  
Precipitation 0.00 in 0.04 in 0.61 in (1981)
Month to date precipitation 0.56 0.52  
Year to date precipitation 6.42 7.99  
Snow  
Snow 0.00 in 0.10 in 5.20 in (1981)
Month to date snowfall 0.5 1.3  
Since 1 July snowfall 0.5 1.7  
Since 1 September snowfall 0.5 1.7  
Snow Depth 0.00 in    
Sea Level Pressure  
Sea Level Pressure 30.20 in    
Wind  
Wind Speed 6 mph (South)    
Max Wind Speed 13 mph    
Max Gust Speed 14 mph    
Visibility 10 miles    
Events      
T = Trace of Precipitation, MM = Missing Value Source: NWS Daily Summary

Daily Weather History Graph

Daily Weather History Graph

Search for Another Location

Airport or City:

Trip Planner

Search our weather history database for the weather conditions in past years. The results will help you decide how hot, cold, wet, or windy it might be!

Date:

Astronomy

Oct. 16, 2013 Rise Set
Actual Time 6:50 AM PDT 5:58 PM PDT
Civil Twilight 6:23 AM PDT 6:25 PM PDT
Nautical Twilight 5:52 AM PDT 6:56 PM PDT
Astronomical Twilight 5:21 AM PDT 7:27 PM PDT
Moon 4:40 PM PDT (10/16) 4:23 AM PDT (10/16)
Length of Visible Light 12h 02m
Length of Day
11h 08m
Waxing Gibbous, 94% of the Moon is Illuminated
Oct 16
Waxing Gibbous
Oct 18
Full
Oct 26
Last Quarter
Nov 3
New
Nov 9
First Quarter

Hourly Weather History & Observations

Time (PDT) Temp. Windchill Dew Point Humidity Pressure Visibility Wind Dir Wind Speed Gust Speed Precip Events Conditions
12:53 AM 27.0 °F 19.5 °F 24.1 °F 89% 30.23 in 10.0 mi South 6.9 mph - N/A   Clear
1:53 AM 24.1 °F - 21.0 °F 88% 30.25 in 10.0 mi Calm Calm - N/A   Clear
2:53 AM 23.0 °F 13.9 °F 21.0 °F 92% 30.25 in 10.0 mi South 8.1 mph - N/A   Clear
3:53 AM 24.1 °F 14.4 °F 21.0 °F 88% 30.24 in 10.0 mi South 9.2 mph - N/A   Clear
4:53 AM 21.9 °F 12.5 °F 21.0 °F 96% 30.25 in 10.0 mi South 8.1 mph - N/A   Clear
5:53 AM 21.9 °F 12.5 °F 19.0 °F 89% 30.28 in 10.0 mi South 8.1 mph - N/A   Clear
6:53 AM 19.9 °F 11.1 °F 18.0 °F 92% 30.32 in 10.0 mi South 6.9 mph - N/A   Clear
7:53 AM 25.0 °F 17.1 °F 21.9 °F 88% 30.32 in 10.0 mi South 6.9 mph - N/A   Clear
8:53 AM 32.0 °F 26.4 °F 27.0 °F 82% 30.30 in 10.0 mi South 5.8 mph - N/A   Clear
9:53 AM 39.0 °F 34.8 °F 25.0 °F 57% 30.27 in 10.0 mi South 5.8 mph - N/A   Clear
10:53 AM 45.0 °F - 21.0 °F 39% 30.24 in 10.0 mi Calm Calm - N/A   Clear
11:53 AM 48.0 °F - 18.0 °F 30% 30.21 in 10.0 mi Calm Calm - N/A   Clear
12:53 PM 53.1 °F - 19.9 °F 27% 30.17 in 10.0 mi NE 3.5 mph - N/A   Clear
1:53 PM 55.0 °F - 17.1 °F 23% 30.14 in 10.0 mi ESE 4.6 mph - N/A   Clear
2:53 PM 57.0 °F - 14.0 °F 18% 30.12 in 10.0 mi ESE 4.6 mph - N/A   Clear
3:53 PM 57.0 °F - 15.1 °F 19% 30.10 in 10.0 mi SW 6.9 mph - N/A   Clear
4:53 PM 55.9 °F - 17.1 °F 22% 30.12 in 10.0 mi WSW 8.1 mph - N/A   Clear
5:53 PM 51.1 °F - 19.0 °F 28% 30.14 in 10.0 mi SW 8.1 mph - N/A   Clear
6:53 PM 48.0 °F - 19.9 °F 33% 30.17 in 10.0 mi East 4.6 mph - N/A   Clear
7:53 PM 41.0 °F 39.0 °F 23.0 °F 49% 30.18 in 10.0 mi South 3.5 mph - N/A   Clear
8:53 PM 39.0 °F 34.8 °F 25.0 °F 57% 30.17 in 10.0 mi SE 5.8 mph - N/A   Clear
9:53 PM 33.1 °F 26.9 °F 24.1 °F 70% 30.17 in 10.0 mi South 6.9 mph - N/A   Clear
10:53 PM 30.9 °F 23.5 °F 23.0 °F 72% 30.15 in 10.0 mi South 8.1 mph - N/A   Clear
11:53 PM 28.9 °F 21.9 °F 23.0 °F 78% 30.14 in 10.0 mi South 6.9 mph - N/A   Clear